Year,Month,Day,Hour,Minute,Value (Times are PST for temperature in C)
2019,11,25,00,00,5.70
2019,11,25,00,01,5.80
2019,11,25,00,02,5.80
2019,11,25,00,03,5.80
2019,11,25,00,04,5.80
2019,11,25,00,05,5.80
2019,11,25,00,06,5.80
2019,11,25,00,07,5.80
2019,11,25,00,08,5.80
2019,11,25,00,09,5.80
2019,11,25,00,10,5.80
2019,11,25,00,11,5.80
2019,11,25,00,12,5.80
2019,11,25,00,13,5.80
2019,11,25,00,14,5.70
2019,11,25,00,15,5.70
2019,11,25,00,16,5.70
2019,11,25,00,17,5.60
2019,11,25,00,18,5.60
2019,11,25,00,19,5.60
2019,11,25,00,20,5.60
2019,11,25,00,21,5.50
2019,11,25,00,22,5.50
2019,11,25,00,23,5.50
2019,11,25,00,24,5.50
2019,11,25,00,25,5.50
2019,11,25,00,26,5.50
2019,11,25,00,27,5.50
2019,11,25,00,28,5.50
2019,11,25,00,29,5.50
2019,11,25,00,30,5.50
2019,11,25,00,31,5.50
2019,11,25,00,32,5.50
2019,11,25,00,33,5.40
2019,11,25,00,34,5.40
2019,11,25,00,35,5.40
2019,11,25,00,36,5.40
2019,11,25,00,37,5.30
2019,11,25,00,38,5.30
2019,11,25,00,39,5.30
2019,11,25,00,40,5.30
2019,11,25,00,41,5.30
2019,11,25,00,42,5.30
2019,11,25,00,43,5.30
2019,11,25,00,44,5.40
2019,11,25,00,45,5.40
2019,11,25,00,46,5.40
2019,11,25,00,47,5.40
2019,11,25,00,48,5.40
2019,11,25,00,49,5.30
2019,11,25,00,50,5.30
2019,11,25,00,51,5.30
2019,11,25,00,52,5.30
2019,11,25,00,53,5.20
2019,11,25,00,54,5.20
2019,11,25,00,55,5.20
2019,11,25,00,56,5.20
2019,11,25,00,57,5.20
2019,11,25,00,58,5.10
2019,11,25,00,59,5.10
2019,11,25,01,00,5.10
2019,11,25,01,01,5.10
2019,11,25,01,02,5.10
2019,11,25,01,03,5.20
2019,11,25,01,04,5.20
2019,11,25,01,05,5.20
2019,11,25,01,06,5.20
2019,11,25,01,07,5.20
2019,11,25,01,08,5.20
2019,11,25,01,09,5.20
2019,11,25,01,10,5.20
2019,11,25,01,11,5.20
2019,11,25,01,12,5.20
2019,11,25,01,13,5.20
2019,11,25,01,14,5.20
2019,11,25,01,15,5.20
2019,11,25,01,16,5.20
2019,11,25,01,17,5.20
2019,11,25,01,18,5.20
2019,11,25,01,19,5.20
2019,11,25,01,20,5.20
2019,11,25,01,21,5.20
2019,11,25,01,22,5.20
2019,11,25,01,23,5.20
2019,11,25,01,24,5.20
2019,11,25,01,25,5.20
2019,11,25,01,26,5.20
2019,11,25,01,27,5.20
2019,11,25,01,28,5.20
2019,11,25,01,29,5.20
2019,11,25,01,30,5.20
2019,11,25,01,31,5.20
2019,11,25,01,32,5.20
2019,11,25,01,33,5.20
2019,11,25,01,34,5.20
2019,11,25,01,35,5.20
2019,11,25,01,36,5.20
2019,11,25,01,37,5.20
2019,11,25,01,38,5.20
2019,11,25,01,39,5.20
2019,11,25,01,40,5.20
2019,11,25,01,41,5.20
2019,11,25,01,42,5.20
2019,11,25,01,43,5.20
2019,11,25,01,44,5.10
2019,11,25,01,45,5.20
2019,11,25,01,46,5.10
2019,11,25,01,47,5.10
2019,11,25,01,48,5.20
2019,11,25,01,49,5.20
2019,11,25,01,50,5.20
2019,11,25,01,51,5.20
2019,11,25,01,52,5.20
2019,11,25,01,53,5.20
2019,11,25,01,54,5.20
2019,11,25,01,55,5.20
2019,11,25,01,56,5.20
2019,11,25,01,57,5.20
2019,11,25,01,58,5.20
2019,11,25,01,59,5.20
2019,11,25,02,00,5.20
2019,11,25,02,01,5.20
2019,11,25,02,02,5.20
2019,11,25,02,03,5.20
2019,11,25,02,04,5.20
2019,11,25,02,05,5.20
2019,11,25,02,06,5.20
2019,11,25,02,07,5.20
2019,11,25,02,08,5.20
2019,11,25,02,09,5.20
2019,11,25,02,10,5.20
2019,11,25,02,11,5.20
2019,11,25,02,12,5.20
2019,11,25,02,13,5.20
2019,11,25,02,14,5.20
2019,11,25,02,15,5.10
2019,11,25,02,16,5.10
2019,11,25,02,17,5.10
2019,11,25,02,18,5.10
2019,11,25,02,19,5.10
2019,11,25,02,20,5.10
2019,11,25,02,21,5.10
2019,11,25,02,22,5.10
2019,11,25,02,23,5.10
2019,11,25,02,24,5.10
2019,11,25,02,25,5.10
2019,11,25,02,26,5.10
2019,11,25,02,27,5.10
2019,11,25,02,28,5.10
2019,11,25,02,29,5.10
2019,11,25,02,30,5.10
2019,11,25,02,31,5.00
2019,11,25,02,32,5.00
2019,11,25,02,33,5.00
2019,11,25,02,34,5.00
2019,11,25,02,35,5.00
2019,11,25,02,36,5.00
2019,11,25,02,37,5.00
2019,11,25,02,38,5.00
2019,11,25,02,39,5.00
2019,11,25,02,40,4.90
2019,11,25,02,41,4.90
2019,11,25,02,42,4.90
2019,11,25,02,43,4.90
2019,11,25,02,44,4.90
2019,11,25,02,45,4.90
2019,11,25,02,46,4.90
2019,11,25,02,47,4.90
2019,11,25,02,48,4.90
2019,11,25,02,49,4.90
2019,11,25,02,50,4.90
2019,11,25,02,51,4.90
2019,11,25,02,52,4.90
2019,11,25,02,53,4.90
2019,11,25,02,54,4.90
2019,11,25,02,55,4.90
2019,11,25,02,56,4.90
2019,11,25,02,57,4.90
2019,11,25,02,58,4.90
2019,11,25,02,59,4.90
2019,11,25,03,00,4.90
2019,11,25,03,01,4.90
2019,11,25,03,02,4.80
2019,11,25,03,03,4.80
2019,11,25,03,04,4.80
2019,11,25,03,05,4.80
2019,11,25,03,06,4.80
2019,11,25,03,07,4.80
2019,11,25,03,08,4.80
2019,11,25,03,09,4.80
2019,11,25,03,10,4.80
2019,11,25,03,11,4.70
2019,11,25,03,12,4.70
2019,11,25,03,13,4.70
2019,11,25,03,14,4.70
2019,11,25,03,15,4.70
2019,11,25,03,16,4.70
2019,11,25,03,17,4.60
2019,11,25,03,18,4.60
2019,11,25,03,19,4.60
2019,11,25,03,20,4.60
2019,11,25,03,21,4.60
2019,11,25,03,22,4.60
2019,11,25,03,23,4.50
2019,11,25,03,24,4.50
2019,11,25,03,25,4.50
2019,11,25,03,26,4.40
2019,11,25,03,27,4.40
2019,11,25,03,28,4.40
2019,11,25,03,29,4.40
2019,11,25,03,30,4.40
2019,11,25,03,31,4.30
2019,11,25,03,32,4.30
2019,11,25,03,33,4.30
2019,11,25,03,34,4.30
2019,11,25,03,35,4.20
2019,11,25,03,36,4.20
2019,11,25,03,37,4.20
2019,11,25,03,38,4.20
2019,11,25,03,39,4.20
2019,11,25,03,40,4.20
2019,11,25,03,41,4.10
2019,11,25,03,42,4.10
2019,11,25,03,43,4.10
2019,11,25,03,44,4.10
2019,11,25,03,45,4.10
2019,11,25,03,46,4.00
2019,11,25,03,47,4.00
2019,11,25,03,48,4.00
2019,11,25,03,49,4.00
2019,11,25,03,50,3.90
2019,11,25,03,51,3.90
2019,11,25,03,52,3.90
2019,11,25,03,53,3.90
2019,11,25,03,54,3.90
2019,11,25,03,55,3.90
2019,11,25,03,56,3.90
2019,11,25,03,57,3.80
2019,11,25,03,58,3.80
2019,11,25,03,59,3.80
2019,11,25,04,00,3.80
2019,11,25,04,01,3.80
2019,11,25,04,02,3.80
2019,11,25,04,03,3.70
2019,11,25,04,04,3.70
2019,11,25,04,05,3.70
2019,11,25,04,06,3.70
2019,11,25,04,07,3.70
2019,11,25,04,08,3.70
2019,11,25,04,09,3.60
2019,11,25,04,10,3.60
2019,11,25,04,11,3.60
2019,11,25,04,12,3.60
2019,11,25,04,13,3.60
2019,11,25,04,14,3.50
2019,11,25,04,15,3.50
2019,11,25,04,16,3.40
2019,11,25,04,17,3.40
2019,11,25,04,18,3.30
2019,11,25,04,19,3.30
2019,11,25,04,20,3.30
2019,11,25,04,21,3.30
2019,11,25,04,22,3.30
2019,11,25,04,23,3.20
2019,11,25,04,24,3.20
2019,11,25,04,25,3.10
2019,11,25,04,26,3.10
2019,11,25,04,27,3.00
2019,11,25,04,28,3.00
2019,11,25,04,29,2.90
2019,11,25,04,30,2.90
2019,11,25,04,31,2.80
2019,11,25,04,32,2.80
2019,11,25,04,33,2.80
2019,11,25,04,34,2.70
2019,11,25,04,35,2.70
2019,11,25,04,36,2.70
2019,11,25,04,37,2.70
2019,11,25,04,38,2.70
2019,11,25,04,39,2.70
2019,11,25,04,40,2.70
2019,11,25,04,41,2.70
2019,11,25,04,42,2.70
2019,11,25,04,43,2.70
2019,11,25,04,44,2.70
2019,11,25,04,45,2.70
2019,11,25,04,46,2.70
2019,11,25,04,47,2.70
2019,11,25,04,48,2.60
2019,11,25,04,49,2.60
2019,11,25,04,50,2.60
2019,11,25,04,51,2.60
2019,11,25,04,52,2.60
2019,11,25,04,53,2.60
2019,11,25,04,54,2.60
2019,11,25,04,55,2.60
2019,11,25,04,56,2.60
2019,11,25,04,57,2.60
2019,11,25,04,58,2.50
2019,11,25,04,59,2.50
2019,11,25,05,00,2.50
2019,11,25,05,01,2.50
2019,11,25,05,02,2.40
2019,11,25,05,03,2.40
2019,11,25,05,04,2.40
2019,11,25,05,05,2.40
2019,11,25,05,06,2.40
2019,11,25,05,07,2.40
2019,11,25,05,08,2.40
2019,11,25,05,09,2.40
2019,11,25,05,10,2.40
2019,11,25,05,11,2.40
2019,11,25,05,12,2.40
2019,11,25,05,13,2.30
2019,11,25,05,14,2.30
2019,11,25,05,15,2.30
2019,11,25,05,16,2.30
2019,11,25,05,17,2.30
2019,11,25,05,18,2.30
2019,11,25,05,19,2.30
2019,11,25,05,20,2.30
2019,11,25,05,21,2.30
2019,11,25,05,22,2.30
2019,11,25,05,23,2.30
2019,11,25,05,24,2.30
2019,11,25,05,25,2.20
2019,11,25,05,26,2.20
2019,11,25,05,27,2.20
2019,11,25,05,28,2.20
2019,11,25,05,29,2.10
2019,11,25,05,30,2.10
2019,11,25,05,31,2.10
2019,11,25,05,32,2.10
2019,11,25,05,33,2.00
2019,11,25,05,34,2.00
2019,11,25,05,35,2.00
2019,11,25,05,36,1.90
2019,11,25,05,37,1.90
2019,11,25,05,38,1.90
2019,11,25,05,39,1.90
2019,11,25,05,40,1.90
2019,11,25,05,41,1.90
2019,11,25,05,42,1.90
2019,11,25,05,43,1.90
2019,11,25,05,44,1.80
2019,11,25,05,45,1.80
2019,11,25,05,46,1.80
2019,11,25,05,47,1.80
2019,11,25,05,48,1.80
2019,11,25,05,49,1.80
2019,11,25,05,50,1.80
2019,11,25,05,51,1.80
2019,11,25,05,52,1.80
2019,11,25,05,53,1.80
2019,11,25,05,54,1.80
2019,11,25,05,55,1.80
2019,11,25,05,56,1.80
2019,11,25,07,54,0.20
2019,11,25,07,55,0.30
2019,11,25,07,56,0.30
2019,11,25,07,57,0.30
2019,11,25,07,58,0.30
2019,11,25,07,59,0.30
2019,11,25,08,00,0.30
2019,11,25,08,01,0.30
2019,11,25,08,02,0.30
2019,11,25,08,03,0.30
2019,11,25,08,04,0.30
2019,11,25,08,05,0.40
2019,11,25,08,06,0.30
2019,11,25,08,07,0.40
2019,11,25,08,08,0.40
2019,11,25,08,09,0.40
2019,11,25,08,10,0.50
2019,11,25,08,11,0.50
2019,11,25,08,12,0.60
2019,11,25,08,13,0.60
2019,11,25,08,14,0.60
2019,11,25,08,15,0.60
2019,11,25,08,16,0.60
2019,11,25,08,17,0.60
2019,11,25,08,18,0.60
2019,11,25,08,19,0.70
2019,11,25,08,20,0.70
2019,11,25,08,21,0.80
2019,11,25,08,22,0.80
2019,11,25,08,23,0.90
2019,11,25,08,24,0.90
2019,11,25,08,25,0.90
2019,11,25,08,26,1.00
2019,11,25,08,27,1.00
2019,11,25,08,28,1.10
2019,11,25,08,29,1.20
2019,11,25,08,30,1.30
2019,11,25,08,31,1.30
2019,11,25,08,32,1.30
2019,11,25,08,33,1.30
2019,11,25,08,34,1.40
2019,11,25,08,35,1.40
2019,11,25,08,36,1.40
2019,11,25,08,37,1.50
2019,11,25,08,38,1.60
2019,11,25,08,39,1.70
2019,11,25,08,40,1.80
2019,11,25,08,41,1.80
2019,11,25,08,42,1.90
2019,11,25,08,43,2.00
2019,11,25,08,44,2.00
2019,11,25,08,45,2.10
2019,11,25,08,46,2.20
2019,11,25,08,47,2.40
2019,11,25,08,48,2.50
2019,11,25,08,49,2.50
2019,11,25,08,50,2.50
2019,11,25,08,51,2.50
2019,11,25,08,52,2.40
2019,11,25,08,53,2.40
2019,11,25,08,54,2.40
2019,11,25,08,55,2.50
2019,11,25,08,56,2.70
2019,11,25,08,57,2.90
2019,11,25,08,58,3.00
2019,11,25,08,59,3.10
2019,11,25,09,00,3.20
2019,11,25,09,01,3.20
2019,11,25,09,02,3.20
2019,11,25,09,03,3.40
2019,11,25,09,04,3.50
2019,11,25,09,05,3.50
2019,11,25,09,06,3.50
2019,11,25,09,07,3.40
2019,11,25,09,08,3.30
2019,11,25,09,09,3.30
2019,11,25,09,10,3.20
2019,11,25,09,11,3.10
2019,11,25,09,12,3.00
2019,11,25,09,13,2.90
2019,11,25,09,14,2.90
2019,11,25,09,15,2.90
2019,11,25,09,16,2.90
2019,11,25,09,17,2.90
2019,11,25,09,18,3.00
2019,11,25,09,19,3.10
2019,11,25,09,20,3.30
2019,11,25,09,21,3.50
2019,11,25,09,22,3.70
2019,11,25,09,23,3.90
2019,11,25,09,24,4.10
2019,11,25,09,25,4.30
2019,11,25,09,26,4.50
2019,11,25,09,27,4.70
2019,11,25,09,28,4.80
2019,11,25,09,29,5.00
2019,11,25,09,30,5.20
2019,11,25,09,31,5.30
2019,11,25,09,32,5.40
2019,11,25,09,33,5.40
2019,11,25,09,34,5.30
2019,11,25,09,35,5.20
2019,11,25,09,36,5.10
2019,11,25,09,37,5.00
2019,11,25,09,38,4.90
2019,11,25,09,39,4.90
2019,11,25,09,40,4.80
2019,11,25,09,41,4.80
2019,11,25,09,42,4.80
2019,11,25,09,43,4.80
2019,11,25,09,44,4.70
2019,11,25,09,45,4.70
2019,11,25,09,46,4.80
2019,11,25,09,47,4.80
2019,11,25,09,48,4.90
2019,11,25,09,49,5.00
2019,11,25,09,50,5.20
2019,11,25,09,51,5.30
2019,11,25,09,52,5.30
2019,11,25,09,53,5.40
2019,11,25,09,54,5.50
2019,11,25,09,55,5.70
2019,11,25,09,56,5.90
2019,11,25,09,57,6.00
2019,11,25,09,58,6.10
2019,11,25,09,59,6.20
2019,11,25,10,00,6.10
2019,11,25,10,01,6.10
2019,11,25,10,02,6.00
2019,11,25,10,03,5.90
2019,11,25,10,04,5.80
2019,11,25,10,05,5.70
2019,11,25,10,06,5.70
2019,11,25,10,07,5.70
2019,11,25,10,08,5.70
2019,11,25,10,09,5.70
2019,11,25,10,10,5.70
2019,11,25,10,11,5.70
2019,11,25,10,12,5.70
2019,11,25,10,13,5.70
2019,11,25,10,14,5.80
2019,11,25,10,15,5.90
2019,11,25,10,16,6.00
2019,11,25,10,17,6.00
2019,11,25,10,18,6.00
2019,11,25,10,19,6.10
2019,11,25,10,20,6.10
2019,11,25,10,21,6.10
2019,11,25,10,22,6.10
2019,11,25,10,23,6.10
2019,11,25,10,24,6.10
2019,11,25,10,25,6.10
2019,11,25,10,26,6.10
2019,11,25,10,27,6.10
2019,11,25,10,28,6.10
2019,11,25,10,29,6.20
2019,11,25,10,30,6.20
2019,11,25,10,31,6.30
2019,11,25,10,32,6.40
2019,11,25,10,33,6.40
2019,11,25,10,34,6.50
2019,11,25,10,35,6.60
2019,11,25,10,36,6.60
2019,11,25,10,37,6.70
2019,11,25,10,38,6.70
2019,11,25,10,39,6.70
2019,11,25,10,40,6.70
2019,11,25,10,41,6.80
2019,11,25,10,42,6.80
2019,11,25,10,43,6.80
2019,11,25,10,44,6.80
2019,11,25,10,45,6.80
2019,11,25,10,46,6.90
2019,11,25,10,47,6.90
2019,11,25,10,48,7.00
2019,11,25,10,49,7.00
2019,11,25,10,50,7.10
2019,11,25,10,51,7.10
2019,11,25,10,52,7.10
2019,11,25,10,53,7.20
2019,11,25,10,54,7.20
2019,11,25,10,55,7.30
2019,11,25,10,56,7.30
2019,11,25,10,57,7.40
2019,11,25,10,58,7.50
2019,11,25,10,59,7.50
2019,11,25,11,00,7.60
2019,11,25,11,01,7.60
2019,11,25,11,02,7.70
2019,11,25,11,03,7.70
2019,11,25,11,04,7.80
2019,11,25,11,05,7.80
2019,11,25,11,06,7.90
2019,11,25,11,07,7.90
2019,11,25,11,08,7.90
2019,11,25,11,09,8.00
2019,11,25,11,10,8.00
2019,11,25,11,11,8.10
2019,11,25,11,12,8.20
2019,11,25,11,13,8.30
2019,11,25,11,14,8.40
2019,11,25,11,15,8.50
2019,11,25,11,16,8.70
2019,11,25,11,17,8.80
2019,11,25,11,18,8.90
2019,11,25,11,19,9.00
2019,11,25,11,20,9.10
2019,11,25,11,21,9.20
2019,11,25,11,22,9.30
2019,11,25,11,23,9.30
2019,11,25,11,24,9.30
2019,11,25,11,25,9.30
2019,11,25,11,26,9.30
2019,11,25,11,27,9.20
2019,11,25,11,28,9.20
2019,11,25,11,29,9.20
2019,11,25,11,30,9.20
2019,11,25,11,31,9.30
2019,11,25,11,32,9.40
2019,11,25,11,33,9.50
2019,11,25,11,34,9.50
2019,11,25,11,35,9.60
2019,11,25,11,36,9.60
2019,11,25,11,37,9.60
2019,11,25,11,38,9.50
2019,11,25,11,39,9.40
2019,11,25,11,40,9.30
2019,11,25,11,41,9.30
2019,11,25,11,42,9.20
2019,11,25,11,43,9.20
2019,11,25,11,44,9.20
2019,11,25,11,45,9.20
2019,11,25,11,46,9.20
2019,11,25,11,47,9.20
2019,11,25,11,48,9.20
2019,11,25,11,49,9.20
2019,11,25,11,50,9.10
2019,11,25,11,51,9.10
2019,11,25,11,52,9.00
2019,11,25,11,53,8.90
2019,11,25,11,54,8.90
2019,11,25,11,55,8.80
2019,11,25,11,56,8.80
2019,11,25,11,57,8.90
2019,11,25,11,58,8.90
2019,11,25,11,59,8.90
2019,11,25,12,00,8.90
2019,11,25,12,01,8.90
2019,11,25,12,02,8.90
2019,11,25,12,03,8.80
2019,11,25,12,04,8.80
2019,11,25,12,05,8.80
2019,11,25,12,06,8.70
2019,11,25,12,07,8.70
2019,11,25,12,08,8.70
2019,11,25,12,09,8.70
2019,11,25,12,10,8.80
2019,11,25,12,11,8.80
2019,11,25,12,12,8.90
2019,11,25,12,13,9.10
2019,11,25,12,14,9.20
2019,11,25,12,15,9.40
2019,11,25,12,16,9.60
2019,11,25,12,17,9.70
2019,11,25,12,18,9.80
2019,11,25,12,19,9.90
2019,11,25,12,20,10.00
2019,11,25,12,21,10.00
2019,11,25,12,22,9.90
2019,11,25,12,23,9.90
2019,11,25,12,24,9.80
2019,11,25,12,25,9.80
2019,11,25,12,26,9.70
2019,11,25,12,27,9.70
2019,11,25,12,28,9.60
2019,11,25,12,29,9.50
2019,11,25,12,30,9.40
2019,11,25,12,31,9.30
2019,11,25,12,32,9.30
2019,11,25,12,33,9.20
2019,11,25,12,34,9.10
2019,11,25,12,35,9.10
2019,11,25,12,36,9.00
2019,11,25,12,37,9.00
2019,11,25,12,38,9.00
2019,11,25,12,39,8.90
2019,11,25,12,40,8.80
2019,11,25,12,41,8.80
2019,11,25,12,42,8.70
2019,11,25,12,43,8.60
2019,11,25,12,44,8.60
2019,11,25,12,45,8.50
2019,11,25,12,46,8.40
2019,11,25,12,47,8.40
2019,11,25,12,48,8.30
2019,11,25,12,49,8.30
2019,11,25,12,50,8.30
2019,11,25,12,51,8.30
2019,11,25,12,52,8.30
2019,11,25,12,53,8.30
2019,11,25,12,54,8.30
2019,11,25,12,55,8.30
2019,11,25,12,56,8.30
2019,11,25,12,57,8.30
2019,11,25,12,58,8.30
2019,11,25,12,59,8.30
2019,11,25,13,00,8.30
2019,11,25,13,01,8.30
2019,11,25,13,02,8.30
2019,11,25,13,03,8.30
2019,11,25,13,04,8.30
2019,11,25,13,05,8.40
2019,11,25,13,06,8.40
2019,11,25,13,07,8.40
2019,11,25,13,08,8.40
2019,11,25,13,09,8.40
2019,11,25,13,10,8.40
2019,11,25,13,11,8.40
2019,11,25,13,12,8.50
2019,11,25,13,13,8.50
2019,11,25,13,14,8.50
2019,11,25,13,15,8.60
2019,11,25,13,16,8.60
2019,11,25,13,17,8.60
2019,11,25,13,18,8.60
2019,11,25,13,19,8.60
2019,11,25,13,20,8.50
2019,11,25,13,21,8.40
2019,11,25,13,22,8.30
2019,11,25,13,23,8.30
2019,11,25,13,24,8.20
2019,11,25,13,25,8.20
2019,11,25,13,26,8.20
2019,11,25,13,27,8.20
2019,11,25,13,28,8.20
2019,11,25,13,29,8.30
2019,11,25,13,30,8.20
2019,11,25,13,31,8.20
2019,11,25,13,32,8.20
2019,11,25,13,33,8.20
2019,11,25,13,34,8.20
2019,11,25,13,35,8.20
2019,11,25,13,36,8.10
2019,11,25,13,37,8.10
2019,11,25,13,38,8.00
2019,11,25,13,39,8.00
2019,11,25,13,40,8.00
2019,11,25,13,41,7.90
2019,11,25,13,42,7.90
2019,11,25,13,43,7.90
2019,11,25,13,44,7.90
2019,11,25,13,45,7.90
2019,11,25,13,46,7.90
2019,11,25,13,47,7.90
2019,11,25,13,48,7.90
2019,11,25,13,49,7.90
2019,11,25,13,50,7.90
2019,11,25,13,51,7.90
2019,11,25,13,52,8.00
2019,11,25,13,53,8.10
2019,11,25,13,54,8.10
2019,11,25,13,55,8.10
2019,11,25,13,56,8.20
2019,11,25,13,57,8.20
2019,11,25,13,58,8.20
2019,11,25,13,59,8.20
2019,11,25,14,00,8.20
2019,11,25,14,01,8.20
2019,11,25,14,02,8.20
2019,11,25,14,03,8.20
2019,11,25,14,04,8.20
2019,11,25,14,05,8.20
2019,11,25,14,06,8.20
2019,11,25,14,07,8.20
2019,11,25,14,08,8.20
2019,11,25,14,09,8.30
2019,11,25,14,10,8.30
2019,11,25,14,11,8.30
2019,11,25,14,12,8.30
2019,11,25,14,13,8.30
2019,11,25,14,14,8.40
2019,11,25,14,15,8.30
2019,11,25,14,16,8.30
2019,11,25,14,17,8.30
2019,11,25,14,18,8.30
2019,11,25,14,19,8.30
2019,11,25,14,20,8.30
2019,11,25,14,21,8.20
2019,11,25,14,22,8.20
2019,11,25,14,23,8.20
2019,11,25,14,24,8.10
2019,11,25,14,25,8.10
2019,11,25,14,26,8.10
2019,11,25,14,27,8.10
2019,11,25,14,28,8.10
2019,11,25,14,29,8.10
2019,11,25,14,30,8.10
2019,11,25,14,31,8.10
2019,11,25,14,32,8.10
2019,11,25,14,33,8.10
2019,11,25,14,34,8.10
2019,11,25,14,35,8.10
2019,11,25,14,36,8.20
2019,11,25,14,37,8.20
2019,11,25,14,38,8.20
2019,11,25,14,39,8.20
2019,11,25,14,40,8.20
2019,11,25,14,41,8.20
2019,11,25,14,42,8.20
2019,11,25,14,43,8.20
2019,11,25,14,44,8.20
2019,11,25,14,45,8.20
2019,11,25,14,46,8.30
2019,11,25,14,47,8.30
2019,11,25,14,48,8.30
2019,11,25,14,49,8.30
2019,11,25,14,50,8.30
2019,11,25,14,51,8.30
2019,11,25,14,52,8.40
2019,11,25,14,53,8.40
2019,11,25,14,54,8.40
2019,11,25,14,55,8.40
2019,11,25,14,56,8.40
2019,11,25,14,57,8.40
2019,11,25,14,58,8.40
2019,11,25,14,59,8.40
2019,11,25,15,00,8.40
2019,11,25,15,01,8.40
2019,11,25,15,02,8.40
2019,11,25,15,03,8.40
2019,11,25,15,04,8.40
2019,11,25,15,05,8.30
2019,11,25,15,06,8.30
2019,11,25,15,07,8.30
2019,11,25,15,08,8.30
2019,11,25,15,09,8.30
2019,11,25,15,10,8.30
2019,11,25,15,11,8.20
2019,11,25,15,12,8.20
2019,11,25,15,13,8.20
2019,11,25,15,14,8.20
2019,11,25,15,15,8.20
2019,11,25,15,16,8.20
2019,11,25,15,17,8.20
2019,11,25,15,18,8.20
2019,11,25,15,19,8.20
2019,11,25,15,20,8.20
2019,11,25,15,21,8.10
2019,11,25,15,22,8.10
2019,11,25,15,23,8.10
2019,11,25,15,24,8.10
2019,11,25,15,25,8.10
2019,11,25,15,26,8.00
2019,11,25,15,27,8.00
2019,11,25,15,28,8.00
2019,11,25,15,29,7.90
2019,11,25,15,30,7.90
2019,11,25,15,31,7.90
2019,11,25,15,32,7.90
2019,11,25,15,33,7.90
2019,11,25,15,34,7.90
2019,11,25,15,35,7.90
2019,11,25,15,36,7.90
2019,11,25,15,37,7.90
2019,11,25,15,38,7.90
2019,11,25,15,39,7.90
2019,11,25,15,40,7.90
2019,11,25,15,41,7.90
2019,11,25,15,42,7.90
2019,11,25,15,43,7.90
2019,11,25,15,44,7.90
2019,11,25,15,45,7.80
2019,11,25,15,46,7.80
2019,11,25,15,47,7.80
2019,11,25,15,48,7.80
2019,11,25,15,49,7.80
2019,11,25,15,50,7.80
2019,11,25,15,51,7.80
2019,11,25,15,52,7.80
2019,11,25,15,53,7.80
2019,11,25,15,54,7.80
2019,11,25,15,55,7.80
2019,11,25,15,56,7.80
2019,11,25,15,57,7.80
2019,11,25,15,58,7.70
2019,11,25,15,59,7.70
2019,11,25,16,00,7.70
2019,11,25,16,01,7.70
2019,11,25,16,02,7.70
2019,11,25,16,03,7.70
2019,11,25,16,04,7.70
2019,11,25,16,05,7.70
2019,11,25,16,06,7.60
2019,11,25,16,07,7.60
2019,11,25,16,08,7.60
2019,11,25,16,09,7.60
2019,11,25,16,10,7.60
2019,11,25,16,11,7.60
2019,11,25,16,12,7.60
2019,11,25,16,13,7.50
2019,11,25,16,14,7.50
2019,11,25,16,15,7.50
2019,11,25,16,16,7.50
2019,11,25,16,17,7.50
2019,11,25,16,18,7.50
2019,11,25,16,19,7.50
2019,11,25,16,20,7.40
2019,11,25,16,21,7.40
2019,11,25,16,22,7.40
2019,11,25,16,23,7.40
2019,11,25,16,24,7.40
2019,11,25,16,25,7.40
2019,11,25,16,26,7.40
2019,11,25,16,27,7.40
2019,11,25,16,28,7.40
2019,11,25,16,29,7.30
2019,11,25,16,30,7.30
2019,11,25,16,31,7.30
2019,11,25,16,32,7.30
2019,11,25,16,33,7.30
2019,11,25,16,34,7.30
2019,11,25,16,35,7.30
2019,11,25,16,36,7.20
2019,11,25,16,37,7.20
2019,11,25,16,38,7.20
2019,11,25,16,39,7.20
2019,11,25,16,40,7.20
2019,11,25,16,41,7.20
2019,11,25,16,42,7.10
2019,11,25,16,43,7.10
2019,11,25,16,44,7.10
2019,11,25,16,45,7.10
2019,11,25,16,46,7.10
2019,11,25,16,47,7.10
2019,11,25,16,48,7.00
2019,11,25,16,49,7.00
2019,11,25,16,50,7.00
2019,11,25,16,51,6.90
2019,11,25,16,52,6.90
2019,11,25,16,53,6.90
2019,11,25,16,54,6.80
2019,11,25,16,55,6.80
2019,11,25,16,56,6.70
2019,11,25,16,57,6.70
2019,11,25,16,58,6.70
2019,11,25,16,59,6.60
2019,11,25,17,00,6.60
2019,11,25,17,01,6.60
2019,11,25,17,02,6.50
2019,11,25,17,03,6.50
2019,11,25,17,04,6.40
2019,11,25,17,05,6.40
2019,11,25,17,06,6.30
2019,11,25,17,07,6.30
2019,11,25,17,08,6.30
2019,11,25,17,09,6.20
2019,11,25,17,10,6.20
2019,11,25,17,11,6.20
2019,11,25,17,12,6.10
2019,11,25,17,13,6.10
2019,11,25,17,14,6.00
2019,11,25,17,15,6.00
2019,11,25,17,16,6.00
2019,11,25,17,17,5.90
2019,11,25,17,18,5.90
2019,11,25,17,19,5.80
2019,11,25,17,20,5.70
2019,11,25,17,21,5.70
2019,11,25,17,22,5.60
2019,11,25,17,23,5.60
2019,11,25,17,24,5.60
2019,11,25,17,25,5.60
2019,11,25,17,26,5.50
2019,11,25,17,27,5.50
2019,11,25,17,28,5.50
2019,11,25,17,29,5.40
2019,11,25,17,30,5.40
2019,11,25,17,31,5.40
2019,11,25,17,32,5.30
2019,11,25,17,33,5.30
2019,11,25,17,34,5.30
2019,11,25,17,35,5.30
2019,11,25,17,36,5.30
2019,11,25,17,37,5.20
2019,11,25,17,38,5.20
2019,11,25,17,39,5.20
2019,11,25,17,40,5.20
2019,11,25,17,41,5.20
2019,11,25,17,42,5.10
2019,11,25,17,43,5.10
2019,11,25,17,44,5.10
2019,11,25,17,45,5.10
2019,11,25,17,46,5.10
2019,11,25,17,47,5.00
2019,11,25,17,48,5.00
2019,11,25,17,49,5.00
2019,11,25,17,50,4.90
2019,11,25,17,51,4.90
2019,11,25,17,52,4.80
2019,11,25,17,53,4.80
2019,11,25,17,54,4.80
2019,11,25,17,55,4.70
2019,11,25,17,56,4.70
2019,11,25,17,57,4.70
2019,11,25,17,58,4.60
2019,11,25,17,59,4.60
2019,11,25,18,00,4.60
2019,11,25,18,01,4.50
2019,11,25,18,02,4.50
2019,11,25,18,03,4.50
2019,11,25,18,04,4.40
2019,11,25,18,05,4.40
2019,11,25,18,06,4.40
2019,11,25,18,07,4.40
2019,11,25,18,08,4.40
2019,11,25,18,09,4.30
2019,11,25,18,10,4.30
2019,11,25,18,11,4.30
2019,11,25,18,12,4.20
2019,11,25,18,13,4.20
2019,11,25,18,14,4.20
2019,11,25,18,15,4.10
2019,11,25,18,16,4.10
2019,11,25,18,17,4.10
2019,11,25,18,18,4.10
2019,11,25,18,19,4.00
2019,11,25,18,20,4.00
2019,11,25,18,21,4.00
2019,11,25,18,22,4.00
2019,11,25,18,23,3.90
2019,11,25,18,24,3.90
2019,11,25,18,25,3.90
2019,11,25,18,26,3.90
2019,11,25,18,27,3.80
2019,11,25,18,28,3.80
2019,11,25,18,29,3.80
2019,11,25,18,30,3.80
2019,11,25,18,31,3.80
2019,11,25,18,32,3.70
2019,11,25,18,33,3.70
2019,11,25,18,34,3.70
2019,11,25,18,35,3.70
2019,11,25,18,36,3.70
2019,11,25,18,37,3.60
2019,11,25,18,38,3.60
2019,11,25,18,39,3.60
2019,11,25,18,40,3.60
2019,11,25,18,41,3.50
2019,11,25,18,42,3.50
2019,11,25,18,43,3.50
2019,11,25,18,44,3.50
2019,11,25,18,45,3.40
2019,11,25,18,46,3.40
2019,11,25,18,47,3.40
2019,11,25,18,48,3.40
2019,11,25,18,49,3.30
2019,11,25,18,50,3.30
2019,11,25,18,51,3.30
2019,11,25,18,52,3.30
2019,11,25,18,53,3.30
2019,11,25,18,54,3.20
2019,11,25,18,55,3.20
2019,11,25,18,56,3.20
2019,11,25,18,57,3.20
2019,11,25,18,58,3.20
2019,11,25,18,59,3.20
2019,11,25,19,00,3.10
2019,11,25,19,01,3.10
2019,11,25,19,02,3.10
2019,11,25,19,03,3.10
2019,11,25,19,04,3.00
2019,11,25,19,05,3.00
2019,11,25,19,06,3.00
2019,11,25,19,07,2.90
2019,11,25,19,08,2.90
2019,11,25,19,09,2.90
2019,11,25,19,10,2.90
2019,11,25,19,11,2.80
2019,11,25,19,12,2.80
2019,11,25,19,13,2.80
2019,11,25,19,14,2.80
2019,11,25,19,15,2.80
2019,11,25,19,16,2.70
2019,11,25,19,17,2.70
2019,11,25,19,18,2.70
2019,11,25,19,19,2.70
2019,11,25,19,20,2.60
2019,11,25,19,21,2.60
2019,11,25,19,22,2.60
2019,11,25,19,23,2.60
2019,11,25,19,24,2.60
2019,11,25,19,25,2.60
2019,11,25,19,26,2.50
2019,11,25,19,27,2.50
2019,11,25,19,28,2.40
2019,11,25,19,29,2.40
2019,11,25,19,30,2.30
2019,11,25,19,31,2.30
2019,11,25,19,32,2.20
2019,11,25,19,33,2.20
2019,11,25,19,34,2.10
2019,11,25,19,35,2.10
2019,11,25,19,36,2.10
2019,11,25,19,37,2.10
2019,11,25,19,38,2.10
2019,11,25,19,39,2.00
2019,11,25,19,40,2.00
2019,11,25,19,41,2.00
2019,11,25,19,42,2.00
2019,11,25,19,43,2.00
2019,11,25,19,44,2.00
2019,11,25,19,45,2.00
2019,11,25,19,46,2.10
2019,11,25,19,47,2.10
2019,11,25,19,48,2.10
2019,11,25,19,49,2.10
2019,11,25,19,50,2.00
2019,11,25,19,51,2.00
2019,11,25,19,52,2.00
2019,11,25,19,53,2.00
2019,11,25,19,54,2.00
2019,11,25,19,55,1.90
2019,11,25,19,56,1.90
2019,11,25,19,57,1.90
2019,11,25,19,58,1.90
2019,11,25,19,59,1.90
2019,11,25,20,00,1.80
2019,11,25,20,01,1.80
2019,11,25,20,02,1.80
2019,11,25,20,03,1.80